Weather History for Kayseri, Turkey

Change the Weather History Date:

Thursday, January 16, 2014

  Actual Average Record
Temperature  
Mean Temperature 36 °F -  
Max Temperature 50 °F 40 °F 53 °F (2004)
Min Temperature 22 °F 21 °F -2 °F (2002)
Degree Days  
Heating Degree Days 29    
Moisture  
Dew Point 24 °F    
Average Humidity 64    
Maximum Humidity 93    
Minimum Humidity 25    
Precipitation  
Precipitation 0.00 in - - ()
Sea Level Pressure  
Sea Level Pressure 30.16 in    
Wind  
Wind Speed 1 mph ()    
Max Wind Speed 7 mph    
Max Gust Speed -    
Visibility 6.2 miles    
Events      
Averages and records for this station are not official NWS values.
T = Trace of Precipitation, MM = Missing Value Source: Averaged Metar Reports

Daily Weather History Graph

Daily Weather History Graph

Search for Another Location

Airport:

Trip Planner

Search our weather history database for the weather conditions in past years. The results will help you decide how hot, cold, wet, or windy it might be!

Date:

Astronomy

Jan. 16, 2014 Rise Set
Actual Time 6:54 AM EET 4:41 PM EET
Civil Twilight 6:25 AM EET 5:10 PM EET
Nautical Twilight 5:52 AM EET 5:43 PM EET
Astronomical Twilight 5:20 AM EET 6:14 PM EET
Moon 5:13 PM EET (1/16) 6:36 AM EET (1/16)
Length of Visible Light 10h 44m
Length of Day
9h 46m
Full, 100% of the Moon is Illuminated
Jan 16
Full
Jan 24
Last Quarter
Jan 30
New
Feb 6
First Quarter
Feb 15
Full

Hourly Weather History & Observations

Time (EET) Temp. Windchill Dew Point Humidity Pressure Visibility Wind Dir Wind Speed Gust Speed Precip Events Conditions
12:20 AM 26.6 °F - 21.2 °F 80% 30.24 in 6.2 mi Calm Calm - N/A   Scattered Clouds
12:50 AM 24.8 °F - 21.2 °F 86% 30.24 in 6.2 mi Calm Calm - N/A   Scattered Clouds
1:20 AM 24.8 °F - 21.2 °F 86% 30.24 in 6.2 mi Calm Calm - N/A   Scattered Clouds
1:50 AM 24.8 °F - 23.0 °F 93% 30.24 in 6.2 mi ENE 1.2 mph - N/A   Mostly Cloudy
2:00 AM 26 °F - 22 °F 81%  in 12 mi ENE 1.2 mph - -   Scattered Clouds
2:20 AM 26.6 °F - 23.0 °F 86% 30.24 in 6.2 mi NNW 1.2 mph - N/A   Scattered Clouds
2:50 AM 28.4 °F - 24.8 °F 86% 30.21 in 3.7 mi Calm Calm - N/A   Scattered Clouds
3:20 AM 28.4 °F - 24.8 °F 86% 30.21 in 3.7 mi SW 1.2 mph - N/A   Mostly Cloudy
3:50 AM 26.6 °F - 23.0 °F 86% 30.21 in 3.7 mi Calm Calm - N/A   Mostly Cloudy
4:20 AM 26.6 °F - 23.0 °F 86% 30.21 in 3.7 mi Variable 2.3 mph - N/A   Mostly Cloudy
4:50 AM 26.6 °F - 23.0 °F 86% 30.21 in 2.2 mi Calm Calm - N/A   Mostly Cloudy
5:00 AM 27 °F - 23 °F 80%  in 2 mi Calm Calm - -   Mist
5:20 AM 26.6 °F - 21.2 °F 80% 30.21 in 2.8 mi NNW 1.2 mph - N/A   Mostly Cloudy
5:50 AM 24.8 °F - 23.0 °F 93% 30.18 in - Calm Calm - N/A   Mostly Cloudy
6:20 AM 26.6 °F - 21.2 °F 80% 30.18 in 6.2 mi North 1.2 mph - N/A   Mostly Cloudy
6:50 AM 24.8 °F - 19.4 °F 80% 30.21 in 6.2 mi Calm Calm - N/A   Partly Cloudy
7:20 AM 23.0 °F - 19.4 °F 86% 30.21 in 2.8 mi Calm Calm - N/A   Partly Cloudy
7:50 AM 30.2 °F - 24.8 °F 80% 30.21 in 3.7 mi Calm Calm - N/A   Partly Cloudy
8:00 AM 29 °F - 24 °F 73%  in 4 mi Calm Calm - -   Mist
8:20 AM 35.6 °F - 24.8 °F 65% 30.24 in 5.6 mi Calm Calm - N/A   Partly Cloudy
8:50 AM 37.4 °F - 23.0 °F 56% 30.24 in 6.2 mi Variable 1.2 mph - N/A   Partly Cloudy
9:20 AM 39.2 °F 37.0 °F 24.8 °F 56% 30.24 in 6.2 mi ENE 3.5 mph - N/A   Scattered Clouds
9:50 AM 44.6 °F - 24.8 °F 46% 30.21 in 6.2 mi Calm Calm - N/A   Scattered Clouds
10:20 AM 44.6 °F - 24.8 °F 46% 30.21 in 6.2 mi Variable 2.3 mph - N/A   Scattered Clouds
10:50 AM 46.4 °F - 24.8 °F 43% 30.18 in 6.2 mi Variable 2.3 mph - N/A   Mostly Cloudy
11:00 AM 47 °F - 26 °F 30%  in 6 mi South 2.3 mph - -   Haze
11:20 AM 48.2 °F - 24.8 °F 40% 30.15 in 6.2 mi Calm Calm - N/A   Mostly Cloudy
11:50 AM 50.0 °F - 24.8 °F 37% 30.15 in 6.2 mi SW 3.5 mph - N/A   Mostly Cloudy
12:20 PM 50.0 °F - 24.8 °F 37% 30.12 in 6.2 mi SW 4.6 mph - N/A   Mostly Cloudy
12:50 PM 50.0 °F - 24.8 °F 37% 30.12 in 6.2 mi WSW 3.5 mph - N/A   Mostly Cloudy
1:20 PM 50.0 °F - 24.8 °F 37% 30.12 in 6.2 mi Variable 2.3 mph - N/A   Mostly Cloudy
1:50 PM 50.0 °F - 24.8 °F 37% 30.09 in 6.2 mi SE 2.3 mph - N/A   Mostly Cloudy
2:00 PM 50 °F - 25 °F 25%  in 12 mi SE 2.3 mph - -   Scattered Clouds
2:20 PM 51.8 °F - 24.8 °F 35% 30.09 in 6.2 mi SSE 3.5 mph - N/A   Mostly Cloudy
2:50 PM 50.0 °F - 24.8 °F 37% 30.09 in 6.2 mi SSE 1.2 mph - N/A   Mostly Cloudy
3:20 PM 50.0 °F - 26.6 °F 40% 30.09 in 6.2 mi Calm Calm - N/A   Mostly Cloudy
3:50 PM 48.2 °F - 30.2 °F 50% 30.09 in 6.2 mi NE 2.3 mph - N/A   Mostly Cloudy
4:20 PM 44.6 °F - 26.6 °F 49% 30.09 in 6.2 mi Calm Calm - N/A   Mostly Cloudy
4:50 PM 41.0 °F - 26.6 °F 57% 30.09 in 6.2 mi NE 2.3 mph - N/A   Mostly Cloudy
5:00 PM 41 °F - 26 °F 43%  in 12 mi NE 2.3 mph - -   Scattered Clouds
5:20 PM 41.0 °F - 24.8 °F 53% 30.09 in 6.2 mi North 2.3 mph - N/A   Mostly Cloudy
5:50 PM 42.8 °F 38.6 °F 24.8 °F 49% 30.09 in 6.2 mi North 6.9 mph - N/A   Mostly Cloudy
6:20 PM 39.2 °F 35.9 °F 24.8 °F 56% 30.09 in 6.2 mi NNE 4.6 mph - N/A   Mostly Cloudy
6:50 PM 37.4 °F - 23.0 °F 56% 30.12 in 6.2 mi ENE 2.3 mph - N/A   Mostly Cloudy
7:20 PM 37.4 °F - 24.8 °F 60% 30.12 in 6.2 mi NNE 1.2 mph - N/A   Mostly Cloudy
7:50 PM 35.6 °F - 23.0 °F 60% 30.12 in 6.2 mi Variable 1.2 mph - N/A   Mostly Cloudy
8:00 PM 35 °F - 23 °F 48%  in 12 mi North 1.2 mph - -   Scattered Clouds
8:20 PM 32.0 °F - 24.8 °F 75% 30.12 in 6.2 mi Variable 1.2 mph - N/A   Mostly Cloudy
8:50 PM 32.0 °F - 24.8 °F 75% 30.12 in 6.2 mi Calm Calm - N/A   Mostly Cloudy
9:20 PM 30.2 °F - 26.6 °F 86% 30.12 in 6.2 mi ENE 1.2 mph - N/A   Mostly Cloudy
9:50 PM 32.0 °F - 24.8 °F 75% 30.12 in 6.2 mi Calm Calm - N/A   Mostly Cloudy
10:20 PM 32.0 °F - 24.8 °F 75% 30.12 in 6.2 mi Calm Calm - N/A   Mostly Cloudy
10:50 PM 32.0 °F - 24.8 °F 75% 30.12 in 6.2 mi Calm Calm - N/A   Mostly Cloudy
11:00 PM 31 °F - 25 °F 70%  in 12 mi Calm Calm - -   Scattered Clouds
11:20 PM 32.0 °F - 24.8 °F 75% 30.12 in 6.2 mi Variable 1.2 mph - N/A   Mostly Cloudy
11:50 PM 32.0 °F - 26.6 °F 80% 30.12 in 6.2 mi Calm Calm - N/A   Mostly Cloudy